AO-07 1 07530U 74089B 25353.28034821 -.00000036 00000-0 66354-4 0 9997 2 07530 101.9964 359.6167 0012379 114.2758 315.0632 12.53694362337974 UO-11 1 14781U 84021B 25353.17249253 .00001265 00000-0 13633-3 0 9990 2 14781 97.7819 316.1012 0009155 64.2882 295.9280 14.90162296230312 AO-27 1 22825U 93061C 25353.15220394 .00000101 00000-0 55746-4 0 9995 2 22825 98.7138 55.4345 0007302 268.1018 91.9328 14.30878998681252 FO-29 1 24278U 96046B 25353.20552665 -.00000035 00000-0 11478-5 0 9992 2 24278 98.5459 221.4730 0349439 203.1787 155.3258 13.53262932448825 GO-32 1 25397U 98043D 25353.23960096 .00000059 00000-0 45722-4 0 9991 2 25397 98.9925 336.6018 0001867 47.1475 312.9859 14.24378852425717 ISS 1 25544U 98067A 25353.05456139 .00006809 00000-0 12867-3 0 9991 2 25544 51.6316 111.2076 0003177 269.7772 90.2853 15.49660414543830 NO-44 1 26931U 01043C 25353.23227240 .00000115 00000-0 73823-4 0 9993 2 26931 67.0515 349.6882 0007422 269.6163 90.4089 14.31858250264688 SO-50 1 27607U 02058C 25353.21431346 .00001457 00000-0 19179-3 0 9996 2 27607 64.5532 325.5870 0072510 295.3542 64.0067 14.82416051237775 CO-55 1 27844U 03031E 25353.26427094 .00000282 00000-0 14155-3 0 9995 2 27844 98.6762 359.0831 0009431 354.6775 5.4302 14.24184674166062 CO-57 1 27848U 03031J 25353.30424695 .00000237 00000-0 12345-3 0 9997 2 27848 98.6791 358.9793 0009683 12.5538 347.5880 14.23491913165784 RS-22 1 27939U 03042A 25353.31076683 .00000819 00000-0 13575-3 0 9993 2 27939 98.3358 167.6849 0012288 116.2258 5.6330 14.72987318189066 CO-58 1 28895U 05043F 25352.89969748 .00001332 00000-0 22056-3 0 9998 2 28895 98.2722 140.0817 0015219 60.0647 300.2068 14.71922397 75226 CO-65 1 32785U 08021C 25351.68477250 .00005656 00000-0 38073-3 0 9997 2 32785 97.8081 324.8433 0007829 290.5969 69.4418 15.07103756957832 CO-66 1 32791U 08021J 25352.93873252 .00013528 00000-0 53734-3 0 9993 2 32791 97.7440 338.2982 0002072 176.4619 183.6633 15.25454877959747 RS-30 1 32953U 08025A 25353.30981803 .00000041 00000-0 22086-3 0 9993 2 32953 82.5023 107.3367 0018772 346.5302 13.5274 12.43172287797348 SRMSAT 1 37841U 11058D 25352.62149840 .00000393 00000-0 69469-4 0 9992 2 37841 19.9722 72.3527 0011902 18.2035 128.7708 14.11513433732273 ZACUBE-1 1 39417U 13066B 25351.39749824 .00003280 00000-0 27002-3 0 9999 2 39417 97.8056 307.9496 0042001 132.1904 228.2897 14.99124350653477 Delfi-N3xt 1 39428U 13066N 25353.24723516 .00005844 00000-0 54783-3 0 9991 2 39428 97.8353 269.1086 0081042 84.2901 276.7551 14.91909233647768 GOMX-1 1 39430U 13066Q 25353.30616969 .00002097 00000-0 32587-3 0 9999 2 39430 97.6583 200.0206 0129276 295.3885 63.3984 14.68615949643500 LO-74 1 39440U 13066AA 25351.56788106 .00003439 00000-0 33426-3 0 9993 2 39440 97.8708 295.2332 0058016 269.4523 90.0047 14.92015584649893 AO-73 1 39444U 13066AE 25353.16635154 .00006635 00000-0 45031-3 0 9995 2 39444 97.8076 316.5236 0041111 94.8693 265.7229 15.06058099652533 DTUSAT-2 1 40030U 14033W 25351.70002679 .00007073 00000-0 41774-3 0 9998 2 40030 98.0754 333.4459 0009697 125.2587 234.9550 15.11812878625232 EO-80 1 40032U 14033Y 25352.90169579 .00007442 00000-0 43806-3 0 9994 2 40032 98.0637 334.0999 0009729 72.5731 287.6561 15.11915655625392 LILACSAT-2 1 40908U 15049K 25353.34320197 .00011984 00000-0 25653-3 0 9994 2 40908 97.4902 18.9293 0007947 172.5209 187.6159 15.44914974567923 IO-86 1 40931U 15052B 25151.18580175 .00001241 00000-0 78118-4 0 9996 2 40931 6.0006 24.0987 0012733 338.8432 21.1169 14.78805930523159 Horyu-4 1 41340U 16012D 25353.11888610 .00039370 00000-0 64545-3 0 9992 2 41340 30.9941 266.1636 0006843 295.7496 64.2447 15.51161511542547 Lapan A3 1 41603U 16040E 25353.29358054 .00003044 00000-0 10210-3 0 9997 2 41603 97.1423 350.6115 0009029 307.3715 52.6704 15.31602395527260 CAS-2T 1 41847U 16066G 25353.13571786 .00000878 00000-0 13397-3 0 9998 2 41847 98.4032 65.8139 0342828 315.7381 41.6850 14.44145620478801 TechnoSat 1 42829U 17042E 25353.25093121 .00002802 00000-0 20933-3 0 9992 2 42829 97.4052 153.1770 0017910 353.2662 6.8321 15.03462106459650 AO-91 1 43017U 17073E 25353.07726365 .00007845 00000-0 37160-3 0 9991 2 43017 97.4940 219.1298 0159297 228.4685 130.2789 15.08989957438196 S-Net D 1 43186U 18014G 25353.22935532 .00004482 00000-0 24745-3 0 9998 2 43186 97.5494 254.2652 0006948 286.7972 73.2497 15.14426292431507 S-Net B 1 43187U 18014H 25353.23751531 .00004098 00000-0 22673-3 0 9996 2 43187 97.5500 254.2538 0007494 280.7299 79.3089 15.14402352431507 S-Net A 1 43188U 18014J 25353.22903631 .00004495 00000-0 24810-3 0 9992 2 43188 97.5508 254.4227 0007444 281.6732 78.3664 15.14432598431503 S-Net C 1 43189U 18014K 25353.24050069 .00004088 00000-0 22614-3 0 9991 2 43189 97.5525 254.4807 0008773 272.2026 87.8201 15.14397450430053 Ten-Koh 1 43677U 18084G 25353.24099808 .00002240 00000-0 17654-3 0 9990 2 43677 98.0744 173.1246 0009032 7.0961 353.0389 15.01856858389145 PO-101 1 43678U 18084H 25353.32527723 .00001797 00000-0 15176-3 0 9995 2 43678 98.1021 177.0526 0007678 30.1486 330.0177 14.99468347389252 QO-100 1 43700U 18090A 25353.27245855 .00000169 00000-0 00000-0 0 9994 2 43700 0.0165 26.5598 0000959 261.7779 283.6687 1.00271763 25874 MinXSS-2 1 43758U 18099A 25353.14505923 .00021283 00000-0 63070-3 0 9996 2 43758 97.4793 60.5979 0009362 188.0893 172.0200 15.34833113386406 AO-95 1 43770U 18099N 25353.10461186 .00010084 00000-0 44381-3 0 9999 2 43770 97.4671 49.3405 0008260 260.2802 99.7501 15.22022791385781 SNUSat 2 1 43782U 18099AA 25353.11733939 .00006997 00000-0 34313-3 0 9993 2 43782 97.4346 44.4147 0010577 198.3316 161.7538 15.18381870385676 SnugLite 1 43784U 18099AC 25353.09012216 .00010155 00000-0 44203-3 0 9990 2 43784 97.4161 44.4579 0002831 176.3458 183.7800 15.22419168385874 ITASat 1 1 43786U 18099AE 25353.09992777 .00006408 00000-0 33492-3 0 9995 2 43786 97.4318 43.2790 0011935 258.8408 101.1484 15.16161583385597 EAGLET 1 1 43790U 18099AJ 25353.12787171 .00003440 00000-0 20855-3 0 9996 2 43790 97.4518 42.5013 0010038 244.2891 115.7303 15.11173048385126 ESEO 1 43792U 18099AL 25353.07088059 .00002283 00000-0 17152-3 0 9991 2 43792 97.4223 32.9957 0011494 224.7109 135.3191 15.03505887384733 JO-97 1 43803U 18099AX 25353.10671683 .00013163 00000-0 49829-3 0 9994 2 43803 97.4417 50.9031 0006394 178.1373 181.9891 15.27036433386088 Suomi 100 1 43804U 18099AY 25353.15841623 .00010040 00000-0 42330-3 0 9994 2 43804 97.4482 49.5696 0010740 188.3011 171.8050 15.23461978385967 ISAT 1 43879U 18111D 25353.22592170 .00027907 00000-0 64899-3 0 9993 2 43879 97.5917 273.1856 0003963 213.2149 146.8849 15.42283973383240 UWE-4 1 43880U 18111E 25353.21927691 .00017452 00000-0 52029-3 0 9990 2 43880 97.5865 269.9239 0007271 246.6380 113.4098 15.34706356383078 Sparrow 1 43881U 18111F 25352.74735418 .00036377 00000-0 78179-3 0 9993 2 43881 97.6101 276.4789 0001976 293.9039 66.2002 15.44587024383292 Prox-1 1 44339U 19036A 25353.02313865 .00011066 00000-0 12251-2 0 9995 2 44339 23.9949 233.1519 0006503 112.3836 247.7351 14.85340321346602 Taurus 1 1 44530U 19059C 25353.24118618 .00005539 00000-0 94782-3 0 9994 2 44530 98.6222 142.4527 0009174 154.6236 205.5421 14.69246877332191 TO-108 1 44881U 19093C 25353.29895358 .00001264 00000-0 15019-3 0 9996 2 44881 97.7758 64.7843 0012857 324.0242 36.0107 14.86118666324690 FloripaSat 1 1 44885U 19093G 25353.30882745 .00005920 00000-0 46380-3 0 9996 2 44885 97.8044 81.5337 0009804 314.3505 45.6914 15.01350036325634 RS-44 1 44909U 19096E 25353.26860719 -.00000002 00000-0 -48992-4 0 9998 2 44909 82.5215 99.2706 0217278 204.7899 154.2640 12.79746088279338 SALSAT 1 46495U 20068K 25352.95618297 .00006686 00000-0 25950-3 0 9998 2 46495 97.8779 340.5640 0009431 204.5533 155.5257 15.26426157287835 CSS (TIANHE-1) 1 48274U 21035A 25353.24747982 .00020088 00000-0 24976-3 0 9996 2 48274 41.4684 337.1916 0007726 88.0762 272.0962 15.59458428265043 TUBIN 1 48900U 21059X 25349.78845228 .07315651 27141-5 56139-3 0 9990 2 48900 97.6553 178.8839 0007270 265.1302 94.9166 16.40417761249824 CUTE 1 49263U 21088D 25353.19440329 .00021908 00000-0 28306-3 0 9995 2 49263 97.4353 76.3340 0004499 240.4341 119.6467 15.58963645234302 TeikyoSat 4 1 49396U 21102B 25352.63779598 .00002222 00000-0 14549-3 0 9992 2 49396 97.3892 24.0158 0011990 187.1020 173.0041 15.08669848225493 Z-Sat 1 49399U 21102E 25353.30968135 .00004802 00000-0 24891-3 0 9994 2 49399 97.3576 29.0555 0017921 150.0509 210.1754 15.16497030226162 KOSEN 1 1 49402U 21102H 25353.07351674 .00006715 00000-0 28153-3 0 9997 2 49402 97.3462 33.8321 0016116 120.7393 239.5434 15.23711085226566 HO-113 1 50466U 21131B 25353.31547156 .00000533 00000-0 17931-3 0 9994 2 50466 98.5054 81.7042 0003076 280.9901 79.0941 14.41120908209204 SNUGLITE 2 1 52899U 22065F 25353.22747763 .00000933 00000-0 18787-3 0 9993 2 52899 98.1931 133.7237 0006749 222.3705 137.6976 14.63853158184667 UmKA 1 (RS40S) 1 57172U 23091G 25353.20126087 .00004763 00000-0 23536-3 0 9993 2 57172 97.5336 47.6383 0014252 32.5474 327.6635 15.18252122136671 CubeBel-2 (EU11S) 1 57175U 23091K 25353.28646927 .00009661 00000-0 39870-3 0 9994 2 57175 97.5335 50.2693 0011635 35.3391 324.8615 15.24192847136859 RS-38S 1 57189U 23091Z 25353.31386799 .00011862 00000-0 41623-3 0 9996 2 57189 97.5361 54.8040 0008180 0.5662 359.5586 15.29552872137132 SONATE-2 1 59112U 24043Q 25353.12865924 .00022953 00000-0 48060-3 0 9998 2 59112 97.5331 129.6197 0009234 139.4831 220.7107 15.45406726 99962 MO-122 1 60209U 24125G 25353.12972368 .00026775 00000-0 53562-3 0 9998 2 60209 97.2511 203.5075 0014653 154.5064 205.6912 15.46635389 81598 GRBBeta 1 60237U 24128C 25352.73189146 .00004105 00000-0 29441-3 0 9994 2 60237 61.9894 128.5920 0056028 97.7517 262.9942 15.04814920 79094 Curium One 1 60242U 24128H 25352.89222318 .00008434 00000-0 52506-3 0 9993 2 60242 61.9794 122.7611 0055697 94.6070 266.1388 15.09004675 79210 ROBUSTA-3A 1 60243U 24128J 25352.89835928 .00006857 00000-0 43787-3 0 9999 2 60243 61.9862 124.3006 0055852 92.0680 268.6811 15.08309578 79199 CatSat 1 60246U 24125J 25353.03943375 .00029232 00000-0 69506-3 0 9991 2 60246 97.2306 200.3576 0034333 121.8838 238.5758 15.40978541 79498 HYPERVIEW-1G (RS66S) 1 61772U 24199AP 25353.27113497 .00030535 00000-0 57684-3 0 9999 2 61772 97.3204 222.7900 0008237 207.4393 152.6424 15.48350585106623 AO-123 1 61781U 24199AY 25353.26950924 .00008370 00000-0 27200-3 0 9995 2 61781 97.3247 218.6483 0013034 229.3499 130.6611 15.32083269106349 ZIMSAT 2 1 61783U 24199BA 25352.95870078 .00214046 00000-0 13498-2 0 9995 2 61783 97.3078 226.2435 0004741 159.9121 200.2332 15.76027296109983 HADES-R (SO-124) 1 62690U 25009CK 25353.18129537 .00140481 00000-0 16507-2 0 9992 2 62690 97.3874 76.0600 0001213 261.4558 98.6562 15.60982717 51783 HYDRA-T 1 62692U 25009CM 25353.21538185 .00164515 00000-0 17681-2 0 9999 2 62692 97.3861 76.3182 0001507 277.2177 82.8910 15.63217966 51802 JINJUSat 1B 1 63210U 25052A 25353.14274451 .00012621 00000-0 48019-3 0 9999 2 63210 97.4208 245.2587 0004952 30.9085 329.2445 15.26887237 42567 NUSHSAT 1 1 63211U 25052B 25353.19908264 .00014582 00000-0 53629-3 0 9992 2 63211 97.4189 245.4451 0005062 34.1990 325.9575 15.27975749 42588 TEVEL2-4 1 63213U 25052D 25353.20281334 .00013285 00000-0 49922-3 0 9998 2 63213 97.4108 244.9874 0004738 49.1337 311.0312 15.27287650 42575 TEVEL2-5 1 63214U 25052E 25353.20859304 .00013024 00000-0 49061-3 0 9992 2 63214 97.4107 244.9798 0004728 49.7232 310.4420 15.27211650 42579 TEVEL2-6 1 63215U 25052F 25353.21610083 .00012783 00000-0 48225-3 0 9995 2 63215 97.4108 244.9754 0004819 49.1083 311.0572 15.27164395 42570 TEVEL2-1 1 63217U 25052H 25352.67033598 .00014195 00000-0 54071-3 0 9991 2 63217 97.4083 244.2394 0005167 58.6972 301.4772 15.26817329 42482 TEVEL2-3 1 63218U 25052J 25352.66945019 .00014382 00000-0 54740-3 0 9992 2 63218 97.4085 244.2443 0005238 59.0065 301.1688 15.26840224 42480 TEVEL2-2 1 63219U 25052K 25353.19539922 .00013194 00000-0 50263-3 0 9990 2 63219 97.4084 244.7608 0005156 58.0109 302.1631 15.26832185 42560 TEVEL2-9 1 63237U 25052AD 25353.16480731 .00012752 00000-0 50799-3 0 9993 2 63237 97.4146 244.4275 0009185 64.2665 295.9520 15.25322962 42526 TEVEL2-7 1 63238U 25052AE 25353.17936356 .00012132 00000-0 48575-3 0 9995 2 63238 97.4146 244.4148 0009265 64.2821 295.9373 15.25166751 42527 TEVEL2-8 1 63239U 25052AF 25352.66022901 .00013503 00000-0 54081-3 0 9993 2 63239 97.4151 243.8851 0009287 65.8418 294.3790 15.25128203 42448 HYDRA-W 1 63490U 25052BL 25352.21863947 .00068284 00000-0 15821-2 0 9990 2 63490 97.4067 246.0800 0011289 57.9505 302.2837 15.42123797 42562 HADES-ICM (SO-125) 1 63492U 25052BN 25351.96064983 .00050303 00000-0 12519-2 0 9990 2 63492 97.4082 245.5345 0011625 61.2981 298.9432 15.40039410 42501 Dragonfly 1 65729U 98067XH 25352.58353461 .00166206 00000-0 11293-2 0 9990 2 65729 51.6249 105.7955 0007166 314.6867 45.3548 15.73865471 14084 RSP-03 1 65732U 98067XL 25353.29741848 .00107626 00000-0 86015-3 0 9999 2 65732 51.6265 103.0728 0005659 294.2748 65.7658 15.70252106 14193 GHS-01 1 65733U 98067XM 25352.90352596 .00206465 00000-0 11904-2 0 9990 2 65733 51.6277 103.4385 0007990 320.4925 39.5492 15.77485683 14155 BOTAN 1 65942U 98067XP 25353.30133908 .00085341 00000-0 87502-3 0 9997 2 65942 51.6281 106.1105 0002892 295.3483 64.7212 15.64217081 10895 BEE-1000 1 66650U 25274A 25352.85674017 .00001054 00000-0 11026-3 0 9991 2 66650 97.7400 279.9321 0010654 228.6345 131.3958 14.91681400 3312 SPIRONE 1 66657U 25274H 25352.84531629 .00001745 00000-0 17541-3 0 9993 2 66657 97.7399 279.9459 0010723 252.9623 107.0422 14.92488768 3313 K-HERO 1 66660U 25274L 25352.77075007 .00002019 00000-0 19949-3 0 9991 2 66660 97.7404 279.8915 0012531 258.5821 101.3991 14.92995215 3308 SNUGLITE-III DURI 1 66661U 25274M 25353.17068803 .00001781 00000-0 17600-3 0 9990 2 66661 97.7404 280.2891 0013162 258.3586 101.6156 14.93131354 3364 SilverSat 1 66909U 98067XV 25352.58523640 .00059069 00000-0 95010-3 0 9997 2 66909 51.6304 113.3244 0003867 263.4051 96.6498 15.52406005 2523 CEVROSAT1 1 98526U 25248E 25313.13142326 .00000000 00000-0 19360-3 0 02 2 98526 45.4084 218.4764 0001315 254.8982 242.1062 15.17981583 02